GW5170 Weather Reports


Display with metric or nautical units.
time (UTC)temp
F
wind
direction
speed
MPH
gust
MPH
rain 1hr
in
rain 24hr
in
rain mn
in
humidity
%
barometer
mb
20260508185732 72 341 0.0 1.0 0.00 0.00 0.00 26 1008.0
20260508185230 71 354 3.0 4.0 0.00 0.00 0.00 26 1008.4
20260508184727 71 297 2.0 3.0 0.00 0.00 0.00 26 1008.5
20260508184224 71 335 3.0 4.0 0.00 0.00 0.00 27 1008.5
20260508183721 70 195 2.0 3.0 0.00 0.00 0.00 27 1008.4
20260508183217 70 28 2.0 3.0 0.00 0.00 0.00 27 1008.5
20260508182713 70 308 1.0 1.0 0.00 0.00 0.00 25 1008.6
20260508182210 70 329 5.0 7.0 0.00 0.00 0.00 27 1008.6
20260508181706 70 310 4.0 6.0 0.00 0.00 0.00 27 1008.6
20260508181203 70 339 5.0 8.0 0.00 0.00 0.00 27 1008.6
20260508180659 70 357 6.0 6.0 0.00 0.00 0.00 26 1008.7
20260508180156 71 299 2.0 2.0 0.00 0.00 0.00 27 1008.6
20260508175648 70 321 2.0 2.0 0.00 0.00 0.00 28 1008.8
20260508175144 70 330 2.0 2.0 0.00 0.00 0.00 26 1009.0
20260508174642 70 211 4.0 4.0 0.00 0.00 0.00 26 1009.2
20260508174138 71 291 3.0 4.0 0.00 0.00 0.00 32 1009.2
20260508173635 69 317 1.0 1.0 0.00 0.00 0.00 33 1009.3
20260508173131 68 317 4.0 8.0 0.00 0.00 0.00 34 1009.4
20260508172629 69 275 3.0 3.0 0.00 0.00 0.00 33 1009.5
20260508172125 69 261 2.0 2.0 0.00 0.00 0.00 34 1009.5
20260508171622 68 19 2.0 2.0 0.00 0.00 0.00 36 1009.7
20260508171118 67 36 4.0 4.0 0.00 0.00 0.00 37 1009.8
20260508170616 69 60 2.0 2.0 0.00 0.00 0.00 36 1010.0
20260508170113 67 62 2.0 3.0 0.00 0.00 0.00 37 1009.9
20260508165610 68 13 2.0 2.0 0.00 0.00 0.00 37 1010.1
20260508165107 69 333 0.0 1.0 0.00 0.00 0.00 37 1010.1
20260508164603 68 331 0.0 0.0 0.00 0.00 0.00 36 1010.1
20260508164100 67 52 1.0 2.0 0.00 0.00 0.00 38 1010.3
20260508163558 66 336 2.0 2.0 0.00 0.00 0.00 41 1010.3
20260508163054 67 6 3.0 4.0 0.00 0.00 0.00 39 1010.2
20260508162551 68 351 0.0 1.0 0.00 0.00 0.00 39 1010.2
20260508162048 66 260 2.0 2.0 0.00 0.00 0.00 42 1010.3
20260508161545 66 325 2.0 2.0 0.00 0.00 0.00 45 1010.4
20260508161042 67 106 4.0 4.0 0.00 0.00 0.00 44 1010.6
20260508160541 65 316 1.0 1.0 0.00 0.00 0.00 47 1010.5
20260508160037 65 12 1.0 2.0 0.00 0.00 0.00 49 1010.5
20260508155535 64 256 1.0 2.0 0.00 0.00 0.00 47 1010.6
20260508155031 63 108 1.0 2.0 0.00 0.00 0.00 50 1010.5
20260508154529 64 73 3.0 3.0 0.00 0.00 0.00 52 1010.6
20260508154025 64 43 2.0 2.0 0.00 0.00 0.00 52 1010.8
20260508153522 63 26 4.0 4.0 0.00 0.00 0.00 52 1010.8
20260508153019 64 300 2.0 3.0 0.00 0.00 0.00 52 1010.9
20260508152516 64 331 0.0 0.0 0.00 0.00 0.00 49 1010.9
20260508152011 63 91 2.0 3.0 0.00 0.00 0.00 52 1011.0
20260508151508 62 7 1.0 2.0 0.00 0.00 0.00 53 1010.9
20260508151004 65 85 3.0 3.0 0.00 0.00 0.00 52 1010.9
20260508150502 63 333 0.0 0.0 0.00 0.00 0.00 52 1011.1
20260508145957 63 29 2.0 3.0 0.00 0.00 0.00 52 1010.9
20260508145454 62 303 2.0 3.0 0.00 0.00 0.00 53 1011.1
20260508144950 62 139 3.0 4.0 0.00 0.00 0.00 53 1011.1
20260508144448 63 47 1.0 2.0 0.00 0.00 0.00 51 1011.2
20260508143945 63 284 1.0 2.0 0.00 0.00 0.00 50 1011.2
20260508143443 61 26 1.0 2.0 0.00 0.00 0.00 53 1011.1
20260508142939 61 309 1.0 1.0 0.00 0.00 0.00 54 1011.3
20260508142437 60 172 3.0 4.0 0.00 0.00 0.00 55 1011.5
20260508141933 60 253 2.0 2.0 0.00 0.00 0.00 55 1011.5
20260508141429 59 319 0.0 1.0 0.00 0.00 0.00 55 1011.5
20260508140927 60 23 4.0 4.0 0.00 0.00 0.00 54 1011.5
20260508140424 59 325 0.0 1.0 0.00 0.00 0.00 53 1011.6
20260508135920 58 17 2.0 2.0 0.00 0.00 0.00 53 1011.3
20260508135417 57 348 1.0 1.0 0.00 0.00 0.00 54 1011.4
20260508134913 56 30 2.0 2.0 0.00 0.00 0.00 54 1011.7
20260508134409 56 42 2.0 2.0 0.00 0.00 0.00 52 1011.6
20260508133906 54 346 0.0 0.0 0.00 0.00 0.00 53 1011.5
20260508133404 53 62 1.0 1.0 0.00 0.00 0.00 54 1011.3
20260508132901 52 13 1.0 1.0 0.00 0.00 0.00 56 1011.7
20260508132359 52 48 2.0 3.0 0.00 0.00 0.00 55 1011.6
20260508131855 53 49 1.0 2.0 0.00 0.00 0.00 53 1011.5
20260508131350 52 344 0.0 0.0 0.00 0.00 0.00 55 1011.5
20260508130848 52 353 0.0 1.0 0.00 0.00 0.00 54 1011.6
20260508130344 50 341 2.0 2.0 0.00 0.00 0.00 57 1011.5
20260508125840 50 337 0.0 0.0 0.00 0.00 0.00 55 1011.5
20260508125336 49 31 2.0 3.0 0.00 0.00 0.00 59 1011.5
20260508124834 48 31 1.0 2.0 0.00 0.00 0.00 60 1011.3
20260508124331 47 350 0.0 1.0 0.00 0.00 0.00 63 1011.5
20260508123829 49 21 1.0 1.0 0.00 0.00 0.00 61 1011.5
20260508123327 51 347 0.0 0.0 0.00 0.00 0.00 56 1011.7
20260508122823 48 347 0.0 0.0 0.00 0.00 0.00 57 1011.6
20260508122320 45 347 0.0 0.0 0.00 0.00 0.00 67 1011.7
20260508121817 43 338 0.0 1.0 0.00 0.00 0.00 69 1011.6
20260508121316 42 332 0.0 0.0 0.00 0.00 0.00 72 1011.6
20260508120813 42 343 0.0 0.0 0.00 0.00 0.00 74 1011.4
20260508120311 41 318 1.0 1.0 0.00 0.00 0.00 77 1011.4
20260508115808 41 6 1.0 1.0 0.00 0.00 0.00 80 1011.5
20260508115306 41 22 1.0 2.0 0.00 0.00 0.00 79 1011.4
20260508114802 41 338 0.0 1.0 0.00 0.00 0.00 78 1011.6
20260508114259 41 338 0.0 0.0 0.00 0.00 0.00 77 1011.5
20260508113755 41 339 0.0 0.0 0.00 0.00 0.00 78 1011.4
20260508113254 41 339 0.0 0.0 0.00 0.00 0.00 79 1011.3
20260508112749 40 338 0.0 0.0 0.00 0.00 0.00 81 1011.4
20260508112247 39 326 0.0 0.0 0.00 0.00 0.00 83 1011.3
20260508111743 38 328 0.0 0.0 0.00 0.00 0.00 84 1011.3
20260508111241 38 329 0.0 0.0 0.00 0.00 0.00 85 1011.3
20260508110738 38 329 0.0 0.0 0.00 0.00 0.00 84 1011.1
20260508110236 38 352 1.0 2.0 0.00 0.00 0.00 84 1011.1
20260508105735 38 325 0.0 0.0 0.00 0.00 0.00 85 1011.1
20260508105232 38 327 1.0 1.0 0.00 0.00 0.00 85 1011.1
20260508104729 38 318 0.0 1.0 0.00 0.00 0.00 85 1011.0
20260508104226 38 332 1.0 2.0 0.00 0.00 0.00 84 1010.9
20260508103724 38 331 0.0 0.0 0.00 0.00 0.00 82 1010.9
20260508103220 38 331 0.0 0.0 0.00 0.00 0.00 82 1011.0
20260508102718 39 336 0.0 0.0 0.00 0.00 0.00 81 1011.1
20260508102216 39 345 1.0 1.0 0.00 0.00 0.00 81 1010.9
20260508101712 39 324 0.0 0.0 0.00 0.00 0.00 81 1011.1
20260508101210 38 328 0.0 0.0 0.00 0.00 0.00 82 1011.1
20260508100707 39 330 0.0 0.0 0.00 0.00 0.00 82 1011.1
20260508100205 39 338 0.0 1.0 0.00 0.00 0.00 82 1011.2
20260508095656 39 336 0.0 0.0 0.00 0.00 0.00 82 1011.0
20260508095154 39 336 0.0 0.0 0.00 0.00 0.00 82 1011.1
20260508094650 39 337 0.0 0.0 0.00 0.00 0.00 81 1011.2
20260508094147 39 345 1.0 1.0 0.00 0.00 0.00 81 1011.2
20260508093645 39 350 1.0 1.0 0.00 0.00 0.00 83 1011.3
20260508093142 39 5 2.0 2.0 0.00 0.00 0.00 85 1011.4
20260508092639 39 343 0.0 1.0 0.00 0.00 0.00 86 1011.3
20260508092138 40 332 0.0 0.0 0.00 0.00 0.00 86 1011.4
20260508091635 40 351 1.0 2.0 0.00 0.00 0.00 86 1011.6
20260508091132 40 341 1.0 1.0 0.00 0.00 0.00 86 1011.5
20260508090630 40 342 1.0 1.0 0.00 0.00 0.00 86 1011.4
20260508090127 40 320 0.0 0.0 0.00 0.00 0.00 86 1011.5
20260508085622 40 335 0.0 1.0 0.00 0.00 0.00 86 1011.4
20260508085120 40 330 1.0 1.0 0.00 0.00 0.00 85 1011.5
20260508084616 41 343 0.0 1.0 0.00 0.00 0.00 83 1011.5
20260508084114 42 337 1.0 1.0 0.00 0.00 0.00 81 1011.5
20260508083611 42 333 0.0 0.0 0.00 0.00 0.00 79 1011.6
20260508083108 43 336 0.0 1.0 0.00 0.00 0.00 76 1011.6
20260508082603 43 342 0.0 0.0 0.00 0.00 0.00 75 1011.6
20260508082101 42 300 1.0 1.0 0.00 0.00 0.00 79 1011.7
20260508081558 41 309 1.0 1.0 0.00 0.00 0.00 83 1011.6
20260508081054 41 333 0.0 1.0 0.00 0.00 0.00 83 1011.8
20260508080552 41 340 0.0 0.0 0.00 0.00 0.00 82 1011.7
20260508080049 41 333 1.0 1.0 0.00 0.00 0.00 82 1011.8
20260508075545 42 335 0.0 0.0 0.00 0.00 0.00 81 1011.7
20260508075043 42 335 0.0 0.0 0.00 0.00 0.00 81 1011.8
20260508074541 41 310 1.0 1.0 0.00 0.00 0.00 83 1012.1
20260508074037 41 336 0.0 0.0 0.00 0.00 0.00 84 1012.0
20260508073534 41 336 1.0 1.0 0.00 0.00 0.00 84 1012.2
20260508073032 42 340 1.0 1.0 0.00 0.00 0.00 84 1012.1
20260508072527 42 326 1.0 1.0 0.00 0.00 0.00 83 1012.2
20260508072025 43 330 0.0 0.0 0.00 0.00 0.00 81 1012.4
20260508071523 43 343 0.0 1.0 0.00 0.00 0.00 80 1012.2
20260508071020 43 337 1.0 1.0 0.00 0.00 0.00 80 1012.4
20260508070518 43 331 0.0 0.0 0.00 0.00 0.00 81 1012.4
20260508070016 43 337 0.0 0.0 0.00 0.00 0.00 80 1012.3
20260508065513 43 336 0.0 0.0 0.00 0.00 0.00 80 1012.5
20260508065012 43 336 0.0 0.0 0.00 0.00 0.00 81 1012.7
20260508064509 43 338 0.0 0.0 0.00 0.00 0.00 80 1012.6
20260508064006 42 330 0.0 0.0 0.00 0.00 0.00 81 1012.7
20260508063503 42 330 0.0 0.0 0.00 0.00 0.00 80 1012.6
20260508063001 43 322 1.0 1.0 0.00 0.00 0.00 80 1012.7
20260508062459 43 333 2.0 2.0 0.00 0.00 0.00 80 1012.7
20260508061955 43 337 1.0 1.0 0.00 0.00 0.00 79 1012.7
20260508061453 43 335 0.0 0.0 0.00 0.00 0.00 79 1012.9
20260508060949 43 338 1.0 1.0 0.00 0.00 0.00 78 1013.0
20260508060447 43 328 0.0 0.0 0.00 0.00 0.00 78 1012.8
20260508055943 44 349 1.0 1.0 0.00 0.00 0.00 78 1012.9
20260508055440 44 342 0.0 0.0 0.00 0.00 0.00 79 1013.0
20260508054936 44 337 0.0 0.0 0.00 0.00 0.00 80 1012.9
20260508054433 43 335 0.0 0.0 0.00 0.00 0.00 81 1012.9
20260508053930 43 327 1.0 1.0 0.00 0.00 0.00 80 1012.9
20260508053427 43 332 0.0 0.0 0.00 0.00 0.00 80 1012.8
20260508052925 43 335 0.0 0.0 0.00 0.00 0.00 80 1012.7
20260508052422 43 353 1.0 1.0 0.00 0.00 0.00 79 1012.9
20260508051918 43 331 3.0 3.0 0.00 0.00 0.00 78 1012.8
20260508051414 44 327 1.0 1.0 0.00 0.00 0.00 76 1012.7
20260508050910 45 338 1.0 1.0 0.00 0.00 0.00 75 1012.8
20260508050407 46 331 0.0 0.0 0.00 0.00 0.00 74 1012.8
20260508045903 46 344 0.0 0.0 0.00 0.00 0.00 74 1012.9
20260508045401 46 332 0.0 0.0 0.00 0.00 0.00 72 1012.8
20260508044858 46 316 1.0 1.0 0.00 0.00 0.00 72 1012.7
20260508044355 46 332 0.0 1.0 0.00 0.00 0.00 71 1012.8
20260508043850 46 326 0.0 0.0 0.00 0.00 0.00 71 1012.7
20260508043348 46 319 0.0 0.0 0.00 0.00 0.00 70 1012.8
20260508042844 45 307 1.0 1.0 0.00 0.00 0.00 72 1012.8
20260508042342 45 320 0.0 0.0 0.00 0.00 0.00 74 1012.5
20260508041839 45 331 0.0 1.0 0.00 0.00 0.00 75 1012.8
20260508041335 46 332 1.0 2.0 0.00 0.00 0.00 74 1012.5
20260508040832 46 334 0.0 0.0 0.00 0.00 0.00 74 1012.5
20260508040329 46 337 1.0 2.0 0.00 0.00 0.00 75 1012.5
20260508035826 46 331 0.0 1.0 0.00 0.00 0.00 74 1012.5
20260508035324 47 350 1.0 1.0 0.00 0.00 0.00 73 1012.5
20260508034820 48 340 1.0 1.0 0.00 0.00 0.00 71 1012.3
20260508034318 48 346 1.0 1.0 0.00 0.00 0.00 70 1012.4
20260508033814 48 323 0.0 0.0 0.00 0.00 0.00 69 1012.4
20260508033313 48 330 0.0 0.0 0.00 0.00 0.00 70 1012.1
20260508032810 48 330 1.0 1.0 0.00 0.00 0.00 71 1011.9
20260508032307 48 340 0.0 0.0 0.00 0.00 0.00 70 1011.9
20260508031803 48 335 0.0 0.0 0.00 0.00 0.00 70 1012.0
20260508031300 48 330 0.0 0.0 0.00 0.00 0.00 69 1012.0
20260508030756 49 331 1.0 1.0 0.00 0.00 0.00 68 1011.8
20260508030254 49 330 0.0 1.0 0.00 0.00 0.00 68 1012.0
20260508025750 50 336 0.0 0.0 0.00 0.00 0.00 66 1011.8
20260508025248 51 333 0.0 0.0 0.00 0.00 0.00 65 1011.7
20260508024744 51 336 0.0 0.0 0.00 0.00 0.00 64 1011.9
20260508024240 51 339 1.0 1.0 0.00 0.00 0.00 63 1011.7
20260508023738 52 336 0.0 0.0 0.00 0.00 0.00 61 1011.5
20260508023235 52 336 0.0 0.0 0.00 0.00 0.00 59 1011.4
20260508022731 53 336 0.0 0.0 0.00 0.00 0.00 57 1011.5
20260508022227 53 336 0.0 0.0 0.00 0.00 0.00 56 1011.3
20260508021724 54 335 0.0 0.0 0.00 0.00 0.00 54 1011.2
20260508021219 55 335 0.0 0.0 0.00 0.00 0.00 52 1011.1
20260508020717 55 335 0.0 0.0 0.00 0.00 0.00 50 1011.2
20260508020214 55 336 0.0 0.0 0.00 0.00 0.00 48 1011.1
20260508015711 56 335 0.0 0.0 0.00 0.00 0.00 46 1011.0
20260508015208 56 335 0.0 0.0 0.00 0.00 0.00 44 1011.0
20260508014705 57 335 0.0 0.0 0.00 0.00 0.00 43 1011.0
20260508014201 58 335 0.0 0.0 0.00 0.00 0.00 41 1010.9
20260508013657 59 335 0.0 0.0 0.00 0.00 0.00 39 1011.0
20260508013154 59 334 0.0 0.0 0.00 0.00 0.00 38 1010.8
20260508012652 59 318 1.0 1.0 0.00 0.00 0.00 37 1011.0
20260508012148 60 334 0.0 0.0 0.00 0.00 0.00 38 1010.8
20260508011647 60 331 1.0 1.0 0.00 0.00 0.00 37 1010.8
20260508011144 61 322 1.0 2.0 0.00 0.00 0.00 37 1010.6
20260508010641 61 311 1.0 1.0 0.00 0.00 0.00 36 1010.6
20260508010139 62 339 2.0 2.0 0.00 0.00 0.00 36 1010.6
20260508005636 62 327 2.0 2.0 0.00 0.00 0.00 35 1010.6
20260508005132 63 319 2.0 3.0 0.00 0.00 0.00 35 1010.6
20260508004627 63 305 2.0 2.0 0.00 0.00 0.00 35 1010.5
20260508004125 63 281 4.0 4.0 0.00 0.00 0.00 35 1010.4
20260508003621 64 312 5.0 6.0 0.00 0.00 0.00 34 1010.4
20260508003119 64 308 1.0 1.0 0.00 0.00 0.00 35 1010.4
20260508002615 64 315 2.0 3.0 0.00 0.00 0.00 34 1010.3
20260508002113 64 306 1.0 2.0 0.00 0.00 0.00 34 1010.3
20260508001608 64 290 1.0 2.0 0.00 0.00 0.00 34 1010.2
20260508001104 65 310 3.0 4.0 0.00 0.00 0.00 34 1010.3
20260508000600 65 327 4.0 4.0 0.00 0.00 0.00 35 1010.4
20260508000057 65 294 2.0 2.0 0.00 0.00 0.00 34 1010.1
20260507235554 65 252 4.0 7.0 0.00 0.00 0.00 34 1010.2
20260507235052 65 267 3.0 3.0 0.00 0.00 0.00 34 1010.2
20260507234548 65 277 3.0 4.0 0.00 0.00 0.00 33 1010.2
20260507234044 65 264 6.0 7.0 0.00 0.00 0.00 34 1010.2
20260507233541 66 257 8.0 11.0 0.00 0.00 0.00 33 1010.1
20260507233040 66 288 5.0 8.0 0.00 0.00 0.00 34 1010.3
20260507232536 65 256 7.0 9.0 0.00 0.00 0.00 34 1010.1
20260507232033 65 323 7.0 10.0 0.00 0.00 0.00 34 1010.2
20260507231529 66 269 6.0 8.0 0.00 0.00 0.00 33 1010.2
20260507231027 66 332 4.0 7.0 0.00 0.00 0.00 32 1010.4
20260507230524 66 288 7.0 8.0 0.00 0.00 0.00 33 1010.3
20260507230020 66 239 4.0 7.0 0.00 0.00 0.00 31 1010.4
20260507225515 66 221 6.0 8.0 0.00 0.00 0.00 32 1010.3
20260507225012 66 271 5.0 7.0 0.00 0.00 0.00 31 1010.3
20260507224508 67 304 3.0 3.0 0.00 0.00 0.00 31 1010.5
20260507224004 67 330 1.0 2.0 0.00 0.00 0.00 31 1010.4
20260507223500 66 306 6.0 8.0 0.00 0.00 0.00 32 1010.5
20260507222958 66 284 9.0 10.0 0.00 0.00 0.00 33 1010.2
20260507222454 67 294 9.0 11.0 0.00 0.00 0.00 31 1010.4
20260507221951 67 1 6.0 7.0 0.00 0.00 0.00 32 1010.4
20260507221448 67 341 8.0 10.0 0.00 0.00 0.00 32 1010.3
20260507220944 66 327 4.0 6.0 0.00 0.00 0.00 30 1010.4
20260507220442 66 312 6.0 8.0 0.00 0.00 0.00 31 1010.3
20260507215938 65 349 5.0 7.0 0.00 0.00 0.00 33 1010.4
20260507215435 64 305 6.0 9.0 0.00 0.00 0.00 34 1010.4
20260507214932 64 257 6.0 9.0 0.00 0.00 0.00 34 1010.5
20260507214430 66 311 12.0 17.0 0.00 0.00 0.00 34 1010.3
20260507213925 66 275 5.0 6.0 0.00 0.00 0.00 33 1010.4
20260507213422 65 269 8.0 11.0 0.00 0.00 0.00 34 1010.4
20260507212919 66 27 6.0 10.0 0.00 0.00 0.00 33 1010.4
20260507212415 65 333 5.0 8.0 0.00 0.00 0.00 31 1010.6
20260507211912 64 294 9.0 11.0 0.00 0.00 0.00 32 1010.5
20260507211408 63 281 9.0 13.0 0.00 0.00 0.00 34 1010.5
20260507210905 63 294 8.0 10.0 0.00 0.00 0.00 36 1010.5
20260507210402 64 242 9.0 11.0 0.00 0.00 0.00 36 1010.5
20260507205858 64 312 3.0 6.0 0.00 0.00 0.00 39 1010.5
20260507205355 63 298 4.0 4.0 0.00 0.00 0.00 39 1010.5
20260507204852 63 260 6.0 7.0 0.00 0.00 0.00 39 1010.8
20260507204349 63 332 2.0 4.0 0.00 0.00 0.00 39 1010.7
20260507203846 63 251 6.0 7.0 0.00 0.00 0.00 38 1010.8
20260507203339 64 266 9.0 13.0 0.00 0.00 0.00 36 1010.7
20260507202835 66 264 9.0 13.0 0.00 0.00 0.00 35 1010.8
20260507202331 66 198 5.0 7.0 0.00 0.00 0.00 35 1010.7
20260507201827 64 222 10.0 11.0 0.00 0.00 0.00 35 1010.8
20260507201323 65 304 13.0 16.0 0.00 0.00 0.00 36 1010.9
20260507200819 64 291 11.0 13.0 0.00 0.00 0.00 37 1010.7
20260507200315 64 167 6.0 10.0 0.00 0.00 0.00 37 1010.9
20260507195811 65 243 14.0 19.0 0.00 0.00 0.00 37 1010.9
20260507195309 66 255 8.0 10.0 0.00 0.00 0.00 36 1010.9
20260507194806 64 303 4.0 9.0 0.00 0.00 0.00 36 1010.9
20260507194302 64 242 8.0 11.0 0.00 0.00 0.00 37 1011.1
20260507193759 63 288 11.0 14.0 0.00 0.00 0.00 38 1011.3
20260507193256 63 239 9.0 10.0 0.00 0.00 0.00 39 1011.1
20260507192752 62 85 5.0 8.0 0.00 0.00 0.00 39 1011.5
20260507192249 64 263 10.0 11.0 0.00 0.00 0.00 37 1011.3
20260507191745 62 267 9.0 10.0 0.00 0.00 0.00 39 1011.2
20260507191242 63 344 6.0 7.0 0.00 0.00 0.00 39 1011.2
20260507190738 62 277 11.0 15.0 0.00 0.00 0.00 41 1011.1
20260507190237 62 263 6.0 10.0 0.00 0.00 0.00 38 1011.5